Wind_Speed
6 8 7 5 2 5 5 5 3 8 5 2 8 2 5 6 3 5 14 12 13 11 12 12 12 10 9 10 9 9 13 14 16 15 15 18 20 20 26 25 24 28 22 19 15 14 13 14 14
9 7 6 2 4 9 4 3 8 5 9 16 11 7 6 5 5 15 10 15 13 12 12 11 10 10 9 10 11 12 14 17 20 18 19 20 18 23 26 26 24 21 17 16 14 12 14 16 19
9 8 3 3 3 7 5 9 10 8 6 4 6 9 4 4 10 12 16 16 14 13 12 12 9 9 10 11 13 14 16 19 22 26 29 30 25 24 23 24 20 22 15 13 12 15 16 20 19
5 3 4 6 9 6 6 8 9 15 15 9 10 8 7 8 7 10 17 16 15 13 12 10 11 10 12 12 13 14 15 18 25 31 36 37 34 33 32 26 23 20 18 17 18 17 20 20 19
2 1 4 4 9 6 9 8 6 4 5 8 8 9 8 5 9 18 17 16 14 13 11 11 11 11 12 13 14 14 14 17 21 24 29 29 34 35 32 27 20 17 16 18 19 19 19 16 15
1 1 3 5 7 9 6 7 6 9 8 15 15 11 5 5 13 17 16 15 14 13 12 10 10 10 11 13 14 14 13 15 18 18 19 18 18 18 20 23 17 14 14 16 17 15 14 14 13
2 3 3 4 6 4 6 8 7 11 16 8 8 6 5 8 16 15 13 14 13 12 11 11 10 9 10 11 12 13 14 14 15 17 17 17 16 17 18 18 15 11 12 12 11 11 12 12 11
3 3 3 2 4 3 10 6 14 11 7 11 10 5 8 14 16 15 13 13 12 11 11 10 11 10 10 10 11 12 13 12 11 13 14 15 14 14 13 14 11 10 10 9 10 10 10 8 7
3 3 3 2 4 6 14 8 8 5 16 4 2 11 15 19 17 16 15 13 12 11 11 10 9 9 9 10 11 12 11 11 10 11 12 13 13 13 11 10 9 7 9 8 8 7 6 5 4
3 2 2 1 3 9 15 15 10 9 11 5 11 16 19 19 18 16 14 13 12 11 10 10 9 9 8 9 9 11 11 9 10 10 11 12 12 12 11 9 8 6 6 8 6 5 3 3 2
3 2 2 2 6 16 15 12 7 16 7 12 24 22 21 19 16 15 14 12 10 10 9 9 9 9 8 7 7 9 8 10 9 8 9 9 10 9 8 7 6 6 6 5 4 4 4 3 5
5 6 3 4 9 15 15 11 8 9 4 16 23 24 22 19 17 15 14 13 12 10 9 7 8 9 9 9 8 9 8 8 9 9 8 8 6 5 4 5 6 5 6 6 6 5 6 6 6
6 3 9 9 11 13 15 9 6 3 9 17 21 24 21 18 15 14 13 12 11 10 8 7 7 8 9 9 9 7 8 8 10 9 9 9 6 5 4 4 5 4 3 6 5 6 9 9 8
3 8 7 7 8 10 10 8 8 4 15 19 21 20 19 18 16 14 14 13 11 10 9 8 7 8 9 8 8 7 7 7 8 8 7 7 4 5 5 5 4 5 6 6 6 7 8 10 11
4 3 2 4 5 4 15 6 3 13 18 20 19 18 17 17 17 15 12 12 11 10 9 8 9 9 8 6 8 8 7 8 7 8 7 7 6 5 5 5 5 4 6 7 9 9 9 11 14
2 2 2 3 7 6 5 3 4 17 20 19 19 19 18 18 19 16 15 13 12 12 10 8 9 9 9 7 6 7 9 10 9 9 10 9 7 8 8 8 9 9 9 10 11 10 12 13 14
1 0 2 4 5 6 4 1 8 19 19 17 18 19 20 20 21 20 18 16 15 12 11 11 8 8 9 9 7 7 7 9 12 10 12 9 9 9 9 9 9 10 9 9 11 11 12 10 11
2 1 1 1 4 3 7 6 10 21 20 20 20 19 19 20 24 20 21 20 18 17 14 12 10 10 9 9 8 7 7 8 11 9 9 10 10 9 10 9 9 8 8 8 9 11 9 9 9
3 2 5 1 4 2 2 4 13 22 21 19 19 20 21 23 19 22 24 24 23 22 19 16 15 13 11 9 8 6 4 4 7 6 5 5 4 4 6 7 9 9 11 9 11 10 11 13 10
1 3 3 2 3 2 3 7 10 18 25 25 23 22 23 21 22 24 23 26 26 26 23 20 16 14 13 10 7 5 4 5 6 6 6 6 6 7 9 9 10 13 12 12 13 13 13 11 11
2 4 4 3 1 3 5 2 5 12 16 19 22 23 23 24 24 23 25 26 26 28 27 24 18 10 19 14 10 8 7 6 7 8 7 8 8 7 9 9 9 9 11 11 12 10 9 10 12
5 1 2 1 3 4 7 4 3 8 15 19 23 25 27 26 25 26 25 24 22 20 24 28 24 20 17 18 15 12 9 5 6 6 10 8 8 8 7 7 7 7 8 10 9 9 10 10 9
4 5 6 3 2 2 4 1 1 2 8 16 23 25 24 24 26 25 26 24 21 19 21 26 26 24 20 17 18 16 13 9 7 7 6 9 9 6 7 7 8 10 11 11 11 10 9 8 6
12 4 4 3 1 2 5 4 2 3 2 4 15 20 20 22 24 25 23 24 22 19 21 26 26 23 17 20 21 20 15 12 11 10 10 9 7 7 8 8 10 10 10 9 9 8 8 7 6
4 1 2 3 3 4 4 3 4 4 5 4 3 10 15 18 19 20 24 26 27 22 20 22 26 24 22 15 21 22 19 17 14 12 11 9 9 9 9 9 10 10 10 10 7 7 6 7 8
3 2 2 2 5 5 2 3 2 1 3 5 10 9 6 8 10 15 19 21 29 26 21 19 19 27 29 19 17 23 21 20 16 14 12 11 10 11 10 10 10 10 10 9 7 8 8 8 8
5 4 2 3 2 2 3 3 6 4 8 10 8 8 10 9 11 11 15 16 25 29 25 19 18 20 25 26 17 20 23 22 19 16 14 14 12 12 11 10 10 9 9 6 5 7 8 8 8
2 10 3 0 1 2 1 4 3 1 2 4 7 8 6 5 7 7 10 12 16 22 26 23 19 19 19 25 25 17 21 22 20 18 16 14 12 12 11 9 9 9 7 5 4 5 6 6 7
5 4 4 4 2 2 2 3 5 5 3 5 7 4 4 4 6 6 6 9 10 16 23 24 22 21 22 24 26 24 20 19 19 19 17 15 14 13 12 10 9 8 5 4 4 3 3 3 3
1 6 6 4 4 1 2 2 6 7 8 6 7 5 4 5 6 8 7 7 10 13 18 23 24 21 19 20 23 23 21 20 22 22 21 19 17 14 13 12 11 8 7 5 4 4 4 3 3
Wind_Direction
70 63 78 54 83 65 60 56 84 101 130 62 137 116 93 60 27 86 138 135 139 127 114 107 95 93 97 103 118 99 66 67 63 77 120 149 145 152 141 141 148 138 129 116 112 124 119 118 115
59 44 47 47 54 64 70 14 79 79 119 112 91 85 59 74 72 130 126 139 140 128 117 106 99 91 97 111 119 95 77 75 69 71 104 121 138 137 142 145 153 154 131 129 115 125 121 117 113
42 39 6 66 52 50 77 107 99 99 147 127 112 70 57 54 111 130 142 138 136 125 120 111 103 95 103 119 114 104 93 79 66 72 105 104 107 117 122 131 141 133 133 137 127 132 122 117 111
33 27 48 53 52 52 112 131 105 107 96 81 105 75 73 97 108 133 138 134 140 134 118 113 104 101 99 112 119 117 101 86 80 89 91 92 97 98 101 109 118 117 117 120 118 125 122 116 111
17 35 51 59 54 66 114 110 119 58 82 96 112 109 95 24 135 143 141 140 140 129 120 110 99 98 101 110 120 121 108 96 97 98 99 102 106 104 97 93 99 105 113 121 122 122 123 122 112
194 57 47 51 74 110 98 98 79 91 98 105 99 103 81 106 145 145 143 140 138 135 129 120 110 101 108 111 116 121 113 103 102 106 104 106 110 107 101 94 90 107 113 123 123 121 130 123 113
76 65 60 77 111 140 137 123 110 117 112 103 119 96 110 134 151 144 143 147 146 147 142 137 125 124 109 111 121 119 115 107 104 105 108 108 111 110 112 114 118 119 126 131 130 126 125 117 108
101 100 109 99 164 117 143 122 128 127 93 120 120 135 145 157 153 152 152 154 154 156 149 148 151 147 132 124 120 124 120 118 110 109 110 112 113 113 120 120 129 130 132 134 133 131 127 129 115
92 80 94 130 178 140 152 131 152 130 137 124 45 140 150 152 158 160 162 162 160 158 156 157 151 152 145 140 136 131 132 131 127 122 123 120 120 122 127 127 129 134 130 143 154 145 147 144 140
49 77 82 250 165 164 165 153 154 150 152 80 116 144 154 159 163 165 167 168 165 166 162 163 163 160 157 152 144 149 144 144 140 137 140 138 134 136 136 137 140 136 141 172 173 188 203 206 221
62 78 154 11 186 156 154 148 154 157 181 161 154 154 162 166 170 173 168 164 166 162 165 167 171 171 173 171 162 167 161 154 153 148 140 144 149 153 151 147 157 165 172 176 189 206 236 243 237
96 46 113 109 142 150 158 155 145 164 173 170 160 159 164 171 176 177 173 166 166 161 159 167 177 178 181 185 178 178 178 167 163 167 167 157 153 152 157 169 180 187 205 212 228 232 235 233 239
95 99 66 104 148 151 149 166 166 202 144 158 158 165 175 179 179 182 183 175 175 171 168 164 172 178 184 190 190 188 179 171 164 162 164 161 158 166 160 163 179 190 224 225 236 238 236 227 235
113 112 113 93 123 137 152 133 149 166 150 158 166 175 183 186 185 185 189 184 183 181 179 174 165 172 174 174 175 177 182 180 189 192 189 196 205 206 202 228 230 240 266 262 247 245 243 241 241
75 115 131 108 109 104 125 137 244 165 166 171 182 185 193 196 197 197 188 189 188 186 192 182 180 183 183 182 195 200 202 206 214 222 218 222 238 236 251 256 257 277 285 263 262 255 246 259 259
73 85 208 137 132 148 219 166 166 170 173 181 188 194 203 209 209 211 211 208 204 200 194 193 191 195 192 192 199 214 223 224 231 235 236 233 242 252 257 266 268 267 270 266 260 259 258 267 267
59 155 202 131 187 158 212 176 173 178 188 189 196 203 207 215 222 222 222 222 220 214 208 201 192 196 201 202 210 219 232 235 232 238 234 240 249 260 256 268 272 264 267 265 256 259 257 269 272
327 318 317 38 158 178 182 219 183 189 196 200 201 210 219 222 226 228 229 230 231 226 217 215 201 181 192 203 210 226 239 241 225 231 239 253 259 263 267 269 271 266 271 261 252 258 266 280 273
144 359 315 120 163 140 166 197 201 190 204 211 215 212 219 230 238 237 238 237 238 233 222 214 212 199 195 208 218 219 219 214 209 212 220 235 245 262 268 271 267 260 272 274 263 265 277 283 282
109 318 0 107 155 262 219 284 202 197 208 214 219 226 228 231 235 244 243 238 244 241 232 219 213 221 218 219 220 223 217 207 201 209 230 253 261 275 283 311 262 271 273 275 270 268 273 268 275
322 298 24 331 344 119 330 116 178 215 225 230 234 238 242 239 236 238 245 242 245 243 234 225 205 256 229 223 218 202 205 210 232 250 252 261 251 269 268 280 283 287 287 288 274 275 277 275 275
317 34 171 0 355 355 349 21 198 210 224 229 235 237 240 238 238 241 244 242 241 239 230 225 218 223 218 222 226 226 221 247 265 292 257 253 246 276 266 272 267 270 279 283 278 276 274 280 275
27 103 108 110 76 303 50 291 30 212 228 229 232 238 237 233 231 234 239 242 247 237 227 221 224 227 231 224 232 234 237 241 258 267 274 255 255 266 251 258 259 266 276 279 277 272 267 262 251
146 121 89 82 352 38 16 324 109 197 210 211 228 231 231 230 228 230 237 242 239 239 224 221 226 220 230 234 234 238 243 247 256 264 277 280 255 251 260 266 272 275 283 288 274 263 258 256 244
179 265 321 333 6 25 4 279 298 254 227 251 261 240 237 233 230 228 237 234 229 231 222 222 225 226 229 243 235 235 240 247 255 258 263 263 267 270 278 281 282 290 295 287 262 246 249 249 247
158 218 246 338 3 330 25 321 113 214 225 272 250 248 247 233 228 230 235 232 224 226 223 217 229 223 224 235 245 231 237 246 254 253 258 267 265 276 282 283 282 289 297 290 263 247 245 244 245
144 192 73 111 110 249 331 279 251 235 239 228 211 216 234 239 243 233 228 230 223 225 230 230 232 227 233 238 248 235 237 246 251 246 255 264 265 279 281 279 283 291 298 281 258 240 241 248 256
254 138 159 175 282 349 36 292 321 21 194 198 216 213 221 233 195 189 207 211 212 222 231 237 242 239 239 236 239 243 236 244 243 238 247 255 266 278 279 274 281 290 292 285 264 246 241 245 251
148 173 68 110 332 294 339 5 210 285 339 247 238 228 218 207 173 164 189 208 212 220 227 233 244 248 241 240 240 241 238 243 227 232 243 249 266 272 270 265 272 273 271 277 278 263 256 246 249
249 155 178 245 182 267 326 295 17 343 342 328 322 314 273 218 187 177 174 195 203 214 226 231 240 245 247 243 235 236 238 242 232 234 239 248 252 248 253 255 263 255 248 261 249 233 226 226 232
Height
1490 1489 1489 1490 1496 1492 1509 1511 1503 1506 1507 1510 1512 1513 1516 1519 1519 1526 1527 1528 1530 1531 1532 1533 1532 1533 1534 1534 1535 1536 1535 1534 1533 1531 1531 1533 1536 1538 1541 1546 1549 1552 1553 1555 1557 1559 1559 1560 1561
1491 1491 1491 1492 1497 1506 1514 1508 1509 1508 1511 1512 1514 1516 1517 1522 1524 1525 1529 1530 1532 1533 1534 1535 1536 1536 1537 1537 1538 1539 1538 1538 1538 1534 1533 1533 1528 1531 1542 1547 1551 1553 1555 1558 1560 1561 1561 1562 1563
1492 1492 1494 1494 1502 1511 1515 1510 1509 1511 1512 1512 1516 1518 1520 1526 1526 1528 1529 1531 1534 1535 1537 1538 1538 1539 1540 1540 1540 1541 1543 1544 1542 1538 1536 1538 1537 1541 1543 1549 1555 1556 1559 1560 1561 1563 1563 1564 1565
1494 1495 1497 1499 1509 1509 1509 1510 1511 1511 1513 1514 1516 1520 1525 1528 1529 1530 1531 1533 1536 1538 1539 1540 1541 1542 1542 1543 1543 1545 1547 1547 1546 1546 1545 1545 1548 1550 1551 1555 1557 1559 1560 1562 1564 1565 1565 1567 1568
1496 1496 1499 1505 1511 1511 1510 1513 1514 1512 1515 1517 1517 1523 1528 1530 1530 1532 1534 1536 1538 1539 1541 1543 1544 1544 1545 1546 1546 1548 1548 1550 1551 1552 1552 1554 1555 1557 1559 1559 1561 1561 1563 1564 1565 1566 1568 1570 1570
1497 1497 1506 1514 1514 1513 1514 1516 1517 1516 1517 1520 1522 1524 1532 1531 1533 1534 1536 1537 1539 1541 1543 1545 1546 1547 1548 1549 1549 1551 1551 1553 1553 1555 1556 1558 1559 1560 1561 1561 1562 1564 1566 1567 1568 1569 1571 1572 1572
1497 1500 1513 1513 1516 1515 1515 1517 1518 1520 1521 1523 1524 1526 1533 1533 1534 1536 1538 1539 1541 1543 1544 1546 1548 1549 1550 1551 1552 1553 1554 1556 1557 1558 1559 1561 1562 1563 1563 1564 1566 1567 1569 1570 1571 1572 1573 1574 1575
1497 1500 1511 1512 1514 1515 1515 1518 1520 1521 1524 1526 1527 1529 1533 1533 1535 1537 1540 1541 1543 1544 1545 1547 1549 1550 1552 1553 1554 1555 1557 1559 1560 1560 1561 1563 1564 1565 1565 1567 1570 1570 1570 1572 1573 1574 1575 1576 1577
1499 1504 1512 1510 1510 1511 1515 1518 1521 1522 1524 1527 1528 1529 1531 1533 1536 1538 1541 1543 1544 1545 1546 1548 1550 1551 1553 1554 1556 1557 1559 1560 1562 1563 1565 1566 1566 1568 1569 1570 1571 1570 1572 1574 1575 1576 1577 1578 1578
1500 1506 1509 1506 1505 1507 1512 1516 1519 1522 1524 1527 1528 1530 1533 1535 1537 1539 1541 1543 1545 1546 1547 1549 1550 1552 1553 1555 1557 1559 1561 1562 1564 1565 1567 1569 1570 1571 1572 1572 1573 1573 1574 1574 1576 1577 1578 1579 1579
1503 1506 1505 1506 1505 1508 1513 1517 1519 1521 1524 1524 1527 1530 1534 1536 1539 1541 1543 1545 1546 1548 1549 1550 1551 1552 1554 1555 1558 1560 1562 1564 1566 1567 1568 1570 1572 1574 1575 1575 1576 1576 1577 1577 1578 1578 1579 1579 1579
1506 1506 1505 1507 1508 1511 1514 1518 1519 1522 1523 1525 1526 1530 1534 1537 1539 1542 1544 1546 1547 1549 1550 1551 1552 1554 1554 1556 1558 1561 1563 1565 1566 1568 1570 1571 1573 1574 1576 1576 1577 1578 1578 1578 1579 1579 1579 1580 1580
1505 1506 1507 1508 1510 1512 1515 1517 1520 1523 1523 1526 1530 1532 1535 1538 1541 1543 1545 1547 1548 1550 1551 1552 1553 1554 1556 1557 1560 1561 1563 1565 1567 1569 1570 1572 1574 1574 1575 1576 1577 1578 1578 1578 1578 1578 1578 1579 1579
1507 1506 1508 1509 1511 1515 1516 1520 1522 1525 1526 1529 1531 1533 1535 1537 1540 1542 1545 1547 1548 1550 1552 1553 1554 1555 1557 1558 1560 1563 1563 1565 1567 1569 1570 1572 1573 1575 1576 1577 1576 1577 1577 1577 1577 1577 1577 1577 1577
1509 1510 1509 1511 1513 1516 1518 1524 1521 1523 1527 1529 1532 1534 1536 1537 1540 1541 1544 1546 1548 1550 1551 1553 1554 1556 1558 1559 1561 1563 1565 1566 1567 1569 1570 1572 1573 1573 1574 1574 1575 1575 1574 1574 1575 1575 1575 1575 1575
1509 1511 1517 1512 1514 1517 1518 1525 1521 1524 1527 1529 1532 1534 1535 1537 1537 1541 1543 1545 1547 1550 1551 1553 1554 1556 1557 1559 1561 1562 1563 1565 1567 1568 1569 1571 1572 1572 1573 1573 1573 1573 1573 1572 1572 1572 1572 1572 1572
1511 1515 1517 1515 1514 1515 1517 1522 1520 1524 1526 1528 1530 1532 1534 1535 1537 1539 1541 1544 1546 1549 1551 1553 1554 1555 1557 1559 1560 1561 1562 1563 1565 1566 1568 1569 1570 1571 1571 1571 1571 1571 1570 1569 1569 1569 1569 1569 1569
1514 1515 1516 1518 1516 1515 1518 1518 1518 1521 1524 1525 1527 1530 1532 1533 1532 1536 1539 1542 1545 1547 1550 1553 1554 1555 1557 1558 1559 1560 1561 1562 1563 1565 1567 1568 1569 1569 1569 1569 1569 1569 1568 1567 1567 1566 1567 1567 1567
1509 1513 1515 1511 1511 1512 1516 1515 1514 1518 1522 1524 1526 1527 1528 1529 1533 1535 1537 1540 1542 1545 1547 1550 1552 1555 1556 1557 1559 1560 1561 1562 1563 1564 1566 1568 1568 1568 1567 1567 1567 1566 1566 1566 1565 1565 1566 1563 1565
1509 1512 1512 1512 1511 1512 1515 1511 1513 1517 1516 1518 1521 1524 1525 1527 1528 1530 1532 1536 1537 1541 1544 1547 1552 1554 1557 1557 1559 1560 1561 1562 1564 1565 1566 1567 1567 1567 1566 1564 1564 1565 1565 1565 1564 1564 1564 1563 1563
1508 1509 1514 1517 1510 1511 1508 1517 1516 1515 1518 1520 1520 1520 1522 1523 1525 1526 1528 1530 1533 1535 1539 1545 1550 1550 1553 1557 1558 1559 1560 1561 1563 1564 1565 1566 1567 1566 1565 1564 1564 1563 1564 1563 1563 1561 1561 1561 1561
1511 1507 1510 1511 1511 1521 1514 1522 1517 1513 1514 1514 1514 1515 1515 1516 1517 1520 1522 1525 1527 1530 1535 1541 1546 1547 1550 1554 1556 1558 1560 1562 1563 1563 1563 1564 1565 1565 1564 1563 1562 1561 1561 1561 1559 1558 1558 1557 1558
1509 1507 1508 1510 1513 1517 1520 1523 1509 1513 1512 1507 1508 1508 1508 1509 1512 1514 1516 1518 1522 1527 1532 1535 1539 1545 1548 1550 1553 1555 1557 1560 1560 1561 1562 1562 1563 1562 1562 1561 1560 1559 1558 1557 1556 1555 1555 1555 1555
1507 1508 1510 1514 1513 1522 1526 1526 1509 1505 1500 1497 1499 1500 1501 1503 1506 1509 1513 1515 1519 1523 1528 1532 1535 1541 1544 1547 1550 1552 1555 1555 1557 1558 1559 1559 1559 1559 1560 1559 1559 1558 1556 1555 1554 1554 1553 1554 1554
1505 1505 1522 1527 1523 1529 1529 1527 1505 1495 1497 1497 1495 1496 1497 1499 1502 1505 1508 1511 1515 1519 1524 1528 1532 1537 1541 1544 1546 1549 1551 1552 1554 1555 1556 1556 1556 1557 1556 1556 1555 1555 1554 1553 1552 1552 1552 1553 1554
1506 1504 1520 1545 1537 1529 1528 1518 1503 1495 1496 1495 1496 1496 1497 1497 1499 1501 1503 1506 1511 1516 1520 1524 1527 1533 1537 1541 1543 1545 1548 1550 1551 1552 1554 1554 1554 1554 1554 1553 1553 1552 1552 1551 1550 1550 1550 1551 1552
1509 1513 1508 1522 1539 1533 1524 1507 1497 1493 1492 1492 1493 1494 1495 1496 1497 1498 1500 1503 1508 1513 1517 1521 1524 1529 1533 1537 1540 1541 1544 1547 1549 1550 1552 1552 1553 1553 1552 1552 1551 1550 1550 1549 1548 1548 1548 1549 1549
1495 1505 1516 1518 1537 1538 1520 1519 1505 1492 1489 1489 1490 1492 1494 1494 1495 1496 1499 1502 1505 1510 1515 1519 1523 1526 1528 1532 1535 1536 1538 1541 1544 1547 1549 1550 1551 1551 1550 1550 1549 1549 1548 1548 1548 1547 1547 1547 1547
1504 1506 1515 1513 1523 1528 1530 1513 1491 1489 1491 1489 1490 1493 1494 1494 1495 1496 1499 1501 1505 1508 1511 1515 1519 1522 1525 1528 1530 1532 1534 1536 1537 1541 1543 1545 1547 1548 1548 1548 1547 1546 1545 1545 1546 1546 1546 1546 1546
1491 1494 1495 1508 1529 1532 1526 1509 1491 1492 1492 1492 1493 1493 1493 1494 1495 1496 1498 1500 1503 1506 1508 1511 1515 1518 1521 1523 1526 1528 1530 1532 1534 1536 1538 1539 1539 1540 1542 1544 1544 1544 1543 1543 1543 1543 1544 1544 1544